1998-067SR

Last updated on Sat Apr 23 2022 01:03:22 GMT+0100 (British Summer Time)

1 49272U 98067SR 22112.52169593 .00072377 00000+0 82154-3 0 9990 2 49272 51.6373 245.3721 0001000 51.1005 309.0078 15.61685380 30900
UTC large
Height (km)
Speed (km/s)
/
Latitude / Longitude
Inclination (degrees)
Orbital Period (minutes)
Azimuth
Elevation
Range (km)
Doppler Factor

Next 0 passes for location: London (51.5072 / 0.1276)

Sorry there are no passes over London.